CFG3714 EDDF-TFFF

Flight info

Callsign CFG3714
Flight time N/A
Altitude 33000
Route SOBRA2L SOBRA Y180 DIK UN857 TOLVU DCT RAPOR DCT GIMER DCT ESTOC DCT PON DCT DITAL/N0471F340 DCT LGL DCT GALBO DCT EKRAS DCT UPALO/N0468F330 DCT FEJAC DCT TIQUH DCT REGHI/M081F340 UN480 ETIKI DCT 47N015W 46N020W 4230N03000W/M081F360 38N040W 36N045W 33N050W 27N055W/M081F380 DCT CITRS/N0475F380 DCT 16N060W DCT FOF
Aircraft A339/H-SDE1E2E3GHIJ1J4J7LM1OP2RVWXYZ/LB1D1

Departure

Time N/A
Airport Frankfurt Main Airport (EDDF)

Arrival

Time 2026-04-19 05:39
Airport Martinique Aimé Césaire International Airport (TFFF)
Time Latitude Longitude Altitude Speed Heading
2026-04-19 04:57 17.51791 -59.24262 35001 ft 405 kts 211°
2026-04-19 04:57 17.46696 -59.26824 35033 ft 407 kts 211°
2026-04-19 04:58 17.41521 -59.29425 35058 ft 416 kts 211°
2026-04-19 04:58 17.36205 -59.32100 35036 ft 420 kts 211°
2026-04-19 04:59 17.31021 -59.34699 35002 ft 409 kts 211°
2026-04-19 04:59 17.25927 -59.37248 34982 ft 402 kts 211°
2026-04-19 05:00 17.20862 -59.39788 34971 ft 402 kts 211°
2026-04-19 05:00 17.15781 -59.42337 34969 ft 401 kts 211°
2026-04-19 05:01 17.10711 -59.44880 34971 ft 400 kts 211°
2026-04-19 05:01 17.05651 -59.47410 34973 ft 401 kts 211°
2026-04-19 05:02 17.00586 -59.49947 34969 ft 399 kts 211°
2026-04-19 05:02 16.95582 -59.52446 34972 ft 400 kts 211°
2026-04-19 05:03 16.90508 -59.54980 34967 ft 400 kts 211°
2026-04-19 05:03 16.85461 -59.57502 34971 ft 400 kts 210°
2026-04-19 05:04 16.80464 -59.59996 34962 ft 399 kts 211°
2026-04-19 05:04 16.75404 -59.62518 34959 ft 400 kts 211°
2026-04-19 05:05 16.70375 -59.65022 34961 ft 399 kts 210°
2026-04-19 05:05 16.65329 -59.67535 34959 ft 399 kts 211°
2026-04-19 05:06 16.60299 -59.70041 34959 ft 400 kts 211°
2026-04-19 05:06 16.55316 -59.72520 34960 ft 399 kts 210°
2026-04-19 05:07 16.50305 -59.75010 34958 ft 398 kts 211°
2026-04-19 05:07 16.45254 -59.77522 34967 ft 400 kts 210°
2026-04-19 05:08 16.37758 -59.81247 34668 ft 394 kts 210°
2026-04-19 05:08 16.35268 -59.82482 34118 ft 392 kts 211°
2026-04-19 05:09 16.32816 -59.83700 33487 ft 391 kts 211°
2026-04-19 05:09 16.30374 -59.84910 32813 ft 391 kts 210°
2026-04-19 05:09 16.27896 -59.86145 32113 ft 394 kts 211°
2026-04-19 05:09 16.25420 -59.87373 31255 ft 401 kts 211°
2026-04-19 05:10 16.22840 -59.88653 30288 ft 410 kts 211°
2026-04-19 05:10 16.20269 -59.89924 29475 ft 415 kts 211°
2026-04-19 05:10 16.17659 -59.91219 28792 ft 417 kts 211°
2026-04-19 05:10 16.15151 -59.92727 28200 ft 408 kts 223°
2026-04-19 05:11 16.13252 -59.94829 27991 ft 398 kts 236°
2026-04-19 05:11 16.11848 -59.97307 27974 ft 402 kts 244°
2026-04-19 05:11 16.10562 -59.99907 27966 ft 403 kts 244°
2026-04-19 05:11 16.09277 -60.02488 27974 ft 403 kts 244°
2026-04-19 05:12 16.07984 -60.05075 27971 ft 404 kts 244°
2026-04-19 05:12 16.06678 -60.07686 27976 ft 406 kts 244°
2026-04-19 05:12 16.05391 -60.10263 27962 ft 405 kts 244°
2026-04-19 05:12 16.04081 -60.12867 27964 ft 404 kts 244°
2026-04-19 05:13 16.02791 -60.15443 27963 ft 403 kts 244°
2026-04-19 05:13 16.01482 -60.18044 27968 ft 404 kts 244°
2026-04-19 05:13 16.00190 -60.20611 27976 ft 404 kts 243°
2026-04-19 05:13 15.98880 -60.23214 27964 ft 405 kts 244°
2026-04-19 05:14 15.97587 -60.25789 27957 ft 404 kts 244°
2026-04-19 05:14 15.96288 -60.28368 27956 ft 403 kts 243°
2026-04-19 05:14 15.94997 -60.30931 27958 ft 403 kts 243°
2026-04-19 05:14 15.93692 -60.33519 27971 ft 404 kts 243°
2026-04-19 05:15 15.92387 -60.36094 27957 ft 405 kts 243°
2026-04-19 05:15 15.91063 -60.38706 27952 ft 405 kts 244°
2026-04-19 05:15 15.89761 -60.41265 27951 ft 403 kts 243°
2026-04-19 05:15 15.88410 -60.43796 27721 ft 400 kts 237°
2026-04-19 05:16 15.86458 -60.45891 27121 ft 407 kts 221°
2026-04-19 05:16 15.84189 -60.47674 26559 ft 406 kts 221°
2026-04-19 05:16 15.81984 -60.49433 26088 ft 404 kts 221°
2026-04-19 05:16 15.79761 -60.51226 25541 ft 403 kts 221°
2026-04-19 05:17 15.77560 -60.53022 24969 ft 404 kts 221°
2026-04-19 05:17 15.75337 -60.54843 24431 ft 403 kts 221°
2026-04-19 05:17 15.73159 -60.56633 23902 ft 403 kts 221°
2026-04-19 05:17 15.70943 -60.58459 23375 ft 403 kts 220°
2026-04-19 05:18 15.68766 -60.60252 22857 ft 402 kts 220°
2026-04-19 05:18 15.66566 -60.62069 22353 ft 401 kts 220°
2026-04-19 05:18 15.64403 -60.63854 21886 ft 400 kts 220°
2026-04-19 05:18 15.62225 -60.65650 21453 ft 398 kts 220°
2026-04-19 05:19 15.60061 -60.67434 21046 ft 395 kts 220°
2026-04-19 05:19 15.57932 -60.69193 20605 ft 393 kts 220°
2026-04-19 05:19 15.55772 -60.70974 20158 ft 392 kts 220°
2026-04-19 05:19 15.53667 -60.72711 19953 ft 387 kts 220°
2026-04-19 05:20 15.51537 -60.74471 19950 ft 390 kts 220°
2026-04-19 05:20 15.49423 -60.76214 19946 ft 391 kts 220°
2026-04-19 05:20 15.47284 -60.77977 19947 ft 390 kts 220°
2026-04-19 05:20 15.45150 -60.79737 19946 ft 391 kts 220°
2026-04-19 05:21 15.43042 -60.81473 19944 ft 391 kts 220°
2026-04-19 05:21 15.40882 -60.83253 19942 ft 392 kts 220°
2026-04-19 05:21 15.38747 -60.85011 19944 ft 392 kts 220°
2026-04-19 05:21 15.36609 -60.86772 19944 ft 392 kts 220°
2026-04-19 05:22 15.34497 -60.88509 19948 ft 392 kts 220°
2026-04-19 05:22 15.32348 -60.90278 19942 ft 392 kts 220°
2026-04-19 05:22 15.30221 -60.92027 19942 ft 392 kts 220°
2026-04-19 05:22 15.28083 -60.93787 19945 ft 393 kts 220°
2026-04-19 05:23 15.25920 -60.95565 19946 ft 393 kts 220°
2026-04-19 05:23 15.23801 -60.97306 19945 ft 392 kts 220°
2026-04-19 05:23 15.21639 -60.99083 19908 ft 393 kts 220°
2026-04-19 05:23 15.19503 -61.00839 19579 ft 392 kts 220°
2026-04-19 05:24 15.17373 -61.02590 19210 ft 390 kts 220°
2026-04-19 05:24 15.15250 -61.04335 18818 ft 388 kts 219°
2026-04-19 05:24 15.13160 -61.06052 18438 ft 385 kts 219°
2026-04-19 05:24 15.11051 -61.07784 18041 ft 383 kts 219°
2026-04-19 05:25 15.08982 -61.09481 17639 ft 381 kts 219°
2026-04-19 05:25 15.06914 -61.11179 17251 ft 379 kts 219°
2026-04-19 05:25 15.04845 -61.12876 16838 ft 378 kts 219°
2026-04-19 05:25 15.02790 -61.14561 16434 ft 376 kts 219°
2026-04-19 05:26 15.00726 -61.16253 16024 ft 375 kts 219°
2026-04-19 05:26 14.98695 -61.17919 15628 ft 373 kts 219°
2026-04-19 05:26 14.96671 -61.19579 15243 ft 371 kts 219°
2026-04-19 05:26 14.94640 -61.21245 14859 ft 369 kts 219°
2026-04-19 05:27 14.92642 -61.22884 14486 ft 366 kts 219°
2026-04-19 05:27 14.90637 -61.24527 14070 ft 365 kts 219°
2026-04-19 05:27 14.88736 -61.26084 13688 ft 363 kts 219°
2026-04-19 05:27 14.88432 -61.26333 13626 ft 363 kts 219°
2026-04-19 05:28 14.86871 -61.27611 13128 ft 360 kts 219°
2026-04-19 05:28 14.84859 -61.29147 12636 ft 360 kts 211°
2026-04-19 05:28 14.82500 -61.30012 12203 ft 361 kts 190°
2026-04-19 05:28 14.79972 -61.30052 11817 ft 360 kts 175°
2026-04-19 05:29 14.77479 -61.29802 11414 ft 359 kts 174°
2026-04-19 05:29 14.75022 -61.29546 11047 ft 357 kts 174°
2026-04-19 05:29 14.72543 -61.29295 10657 ft 355 kts 175°
2026-04-19 05:29 14.70102 -61.29059 10441 ft 347 kts 175°
2026-04-19 05:30 14.67738 -61.28837 10044 ft 333 kts 175°
2026-04-19 05:30 14.65482 -61.28661 9743 ft 315 kts 181°
2026-04-19 05:30 14.63373 -61.29078 9189 ft 310 kts 205°
2026-04-19 05:30 14.61593 -61.30323 8343 ft 316 kts 226°
2026-04-19 05:31 14.60152 -61.32074 7291 ft 326 kts 230°
2026-04-19 05:31 14.58437 -61.33616 6197 ft 333 kts 203°
2026-04-19 05:31 14.56233 -61.34087 5535 ft 318 kts 171°
2026-04-19 05:31 14.54246 -61.33396 5262 ft 292 kts 143°
2026-04-19 05:32 14.52799 -61.32024 5070 ft 279 kts 124°
2026-04-19 05:32 14.51868 -61.30306 4829 ft 273 kts 107°
2026-04-19 05:32 14.51514 -61.28408 4623 ft 267 kts 90°
2026-04-19 05:32 14.51759 -61.26534 4388 ft 261 kts 72°
2026-04-19 05:33 14.52467 -61.24822 4032 ft 260 kts 66°
2026-04-19 05:33 14.53219 -61.23148 3635 ft 253 kts 66°
2026-04-19 05:33 14.53930 -61.21544 3371 ft 241 kts 67°
2026-04-19 05:33 14.54604 -61.20005 3127 ft 231 kts 67°
2026-04-19 05:34 14.55245 -61.18528 2879 ft 221 kts 67°
2026-04-19 05:34 14.55890 -61.17128 2628 ft 211 kts 69°
2026-04-19 05:34 14.56367 -61.15712 2375 ft 203 kts 75°
2026-04-19 05:34 14.56690 -61.14320 2129 ft 195 kts 78°
2026-04-19 05:35 14.56940 -61.12970 2025 ft 187 kts 79°
2026-04-19 05:35 14.57161 -61.11674 1873 ft 183 kts 80°
2026-04-19 05:35 14.57378 -61.10386 1638 ft 178 kts 80°
2026-04-19 05:35 14.57585 -61.09174 1416 ft 169 kts 79°
2026-04-19 05:36 14.57787 -61.07995 1193 ft 161 kts 79°
2026-04-19 05:36 14.57859 -61.07582 1114 ft 159 kts 80°
2026-04-19 05:36 14.58005 -61.06728 960 ft 154 kts 79°
2026-04-19 05:37 14.58188 -61.05665 769 ft 147 kts 79°
2026-04-19 05:37 14.58364 -61.04637 590 ft 144 kts 79°
2026-04-19 05:37 14.58541 -61.03622 434 ft 144 kts 79°
2026-04-19 05:37 14.58716 -61.02597 255 ft 145 kts 81°
2026-04-19 05:38 14.58887 -61.01583 60 ft 141 kts 78°
2026-04-19 05:38 14.59048 -61.00660 39 ft 116 kts 81°
2026-04-19 05:38 14.59174 -60.99926 39 ft 87 kts 79°
2026-04-19 05:38 14.59262 -60.99398 44 ft 65 kts 78°
2026-04-19 05:39 14.59324 -60.99047 45 ft 25 kts 79°
2026-04-19 05:39 14.59334 -60.99019 45 ft 3 kts 73°
2026-04-19 05:39 14.59324 -60.99008 45 ft 2 kts 177°
2026-04-19 05:39 14.59314 -60.99028 45 ft 5 kts 266°
2026-04-19 05:40 14.59311 -60.99097 45 ft 16 kts 268°
2026-04-19 05:40 14.59288 -60.99260 45 ft 26 kts 259°
2026-04-19 05:40 14.59255 -60.99447 44 ft 26 kts 261°
2026-04-19 05:40 14.59232 -60.99610 42 ft 14 kts 274°
2026-04-19 05:41 14.59289 -60.99657 42 ft 11 kts 352°
2026-04-19 05:41 14.59366 -60.99675 43 ft 10 kts 340°
2026-04-19 05:41 14.59395 -60.99732 43 ft 11 kts 272°
2026-04-19 05:41 14.59385 -60.99827 43 ft 14 kts 263°
2026-04-19 05:42 14.59366 -60.99938 40 ft 15 kts 260°
2026-04-19 05:42 14.59362 -61.00020 39 ft 11 kts 279°
2026-04-19 05:42 14.59385 -61.00105 38 ft 13 kts 291°
2026-04-19 05:42 14.59428 -61.00182 38 ft 7 kts 307°
2026-04-19 05:43 14.59454 -61.00203 38 ft 3 kts
2026-04-19 05:43 14.59472 -61.00194 38 ft 3 kts 33°
2026-04-19 05:43 14.59490 -61.00177 39 ft 3 kts 46°
2026-04-19 05:43 14.59507 -61.00159 39 ft 4 kts 47°
2026-04-19 05:44 14.59514 -61.00151 39 ft 0 kts 47°
2026-04-19 05:44 14.59514 -61.00150 39 ft 0 kts 47°